Time,TemperatureF,DewpointF,PressureIn,WindDirection,WindDirectionDegrees,WindSpeedMPH,WindSpeedGustMPH,Humidity,HourlyPrecipIn,Conditions,Clouds,dailyrainin,SoftwareType,DateUTC
2013-02-21 00:02:00,59.9,58.5,29.45,SE,135,2.5,5.4,95,0.01,,,0.00,WUHU216HW,2013-02-21 06:02:00,
2013-02-21 00:13:00,60.1,58.7,29.44,SE,135,4.0,7.2,95,0.01,,,0.00,WUHU216HW,2013-02-21 06:13:00,
2013-02-21 00:18:00,60.3,58.9,29.44,East,90,4.0,6.9,95,0.00,,,0.00,WUHU216HW,2013-02-21 06:18:00,
2013-02-21 00:24:00,60.5,59.0,29.45,ESE,113,5.1,7.4,95,0.00,,,0.00,WUHU216HW,2013-02-21 06:24:00,
2013-02-21 00:29:00,60.8,59.4,29.44,South,180,5.4,7.8,95,0.00,,,0.00,WUHU216HW,2013-02-21 06:29:00,
2013-02-21 00:40:00,61.2,59.8,29.45,ESE,113,9.8,9.8,95,0.00,,,0.00,WUHU216HW,2013-02-21 06:40:00,
2013-02-21 00:45:00,61.6,60.1,29.44,South,180,6.3,9.8,95,0.00,,,0.00,WUHU216HW,2013-02-21 06:45:00,
2013-02-21 00:50:00,61.7,60.3,29.44,South,180,8.9,8.9,95,0.00,,,0.00,WUHU216HW,2013-02-21 06:50:00,
2013-02-21 00:55:00,61.9,60.5,29.44,SE,135,6.3,8.9,95,0.00,,,0.00,WUHU216HW,2013-02-21 06:55:00,
2013-02-21 01:00:00,62.3,60.8,29.44,South,180,10.1,10.1,95,0.00,,,0.00,WUHU216HW,2013-02-21 07:00:00,
2013-02-21 01:05:00,62.5,61.0,29.44,SSE,158,7.8,10.1,95,0.00,,,0.00,WUHU216HW,2013-02-21 07:05:00,
2013-02-21 01:10:00,62.8,61.4,29.44,SSW,203,6.3,13.6,95,0.00,,,0.00,WUHU216HW,2013-02-21 07:10:00,
2013-02-21 01:15:00,63.0,61.6,29.44,South,180,7.8,13.6,95,0.00,,,0.00,WUHU216HW,2013-02-21 07:15:00,
2013-02-21 01:20:00,63.0,61.6,29.44,South,180,5.8,10.1,95,0.00,,,0.00,WUHU216HW,2013-02-21 07:20:00,
2013-02-21 01:27:00,63.2,61.7,29.44,South,180,3.8,11.4,95,0.01,,,0.00,WUHU216HW,2013-02-21 07:27:00,
2013-02-21 01:32:00,63.2,61.7,29.44,SSW,203,6.9,11.0,95,0.01,,,0.01,WUHU216HW,2013-02-21 07:32:00,
2013-02-21 01:37:00,63.4,61.9,29.44,SSE,158,10.1,11.0,95,0.01,,,0.01,WUHU216HW,2013-02-21 07:37:00,
2013-02-21 01:42:00,63.4,61.9,29.44,South,180,6.0,10.1,95,0.01,,,0.01,WUHU216HW,2013-02-21 07:42:00,
2013-02-21 01:47:00,63.5,62.1,29.45,SSW,203,5.6,10.3,95,0.01,,,0.01,WUHU216HW,2013-02-21 07:47:00,
2013-02-21 01:52:00,63.7,62.3,29.45,South,180,8.9,11.2,95,0.01,,,0.01,WUHU216HW,2013-02-21 07:52:00,
2013-02-21 01:57:00,63.9,62.5,29.45,SSE,158,8.5,11.2,95,0.01,,,0.01,WUHU216HW,2013-02-21 07:57:00,
2013-02-21 02:02:00,63.9,62.2,29.44,SSE,158,6.0,8.5,94,0.01,,,0.01,WUHU216HW,2013-02-21 08:02:00,
2013-02-21 02:07:00,64.1,62.4,29.44,SSE,158,7.2,9.2,94,0.02,,,0.01,WUHU216HW,2013-02-21 08:07:00,
2013-02-21 02:12:00,64.1,62.4,29.44,SSE,158,6.5,9.2,94,0.02,,,0.02,WUHU216HW,2013-02-21 08:12:00,
2013-02-21 02:17:00,64.1,62.4,29.44,SSW,203,6.5,8.9,94,0.02,,,0.02,WUHU216HW,2013-02-21 08:17:00,
2013-02-21 02:22:00,64.3,62.6,29.43,SSE,158,3.8,8.5,94,0.02,,,0.02,WUHU216HW,2013-02-21 08:22:00,
2013-02-21 02:27:00,64.3,62.6,29.43,SSE,158,5.4,8.5,94,0.01,,,0.02,WUHU216HW,2013-02-21 08:27:00,
2013-02-21 02:32:00,64.4,62.7,29.43,SSW,203,5.4,11.2,94,0.01,,,0.02,WUHU216HW,2013-02-21 08:32:00,
2013-02-21 02:37:00,64.4,62.7,29.43,South,180,8.3,11.2,94,0.01,,,0.02,WUHU216HW,2013-02-21 08:37:00,
2013-02-21 02:42:00,64.4,62.7,29.42,SE,135,8.1,8.3,94,0.01,,,0.02,WUHU216HW,2013-02-21 08:42:00,
2013-02-21 02:47:00,64.4,62.7,29.42,SSE,158,2.7,9.8,94,0.02,,,0.03,WUHU216HW,2013-02-21 08:47:00,
2013-02-21 02:52:00,64.4,62.7,29.42,SE,135,4.3,10.7,94,0.02,,,0.03,WUHU216HW,2013-02-21 08:52:00,
2013-02-21 02:57:00,64.4,62.7,29.41,South,180,7.2,10.7,94,0.02,,,0.03,WUHU216HW,2013-02-21 08:57:00,
2013-02-21 03:02:00,64.4,62.7,29.41,SSE,158,4.5,11.0,94,0.02,,,0.03,WUHU216HW,2013-02-21 09:02:00,
2013-02-21 03:07:00,64.4,62.7,29.41,SSW,203,9.4,11.0,94,0.01,,,0.03,WUHU216HW,2013-02-21 09:07:00,
2013-02-21 03:12:00,64.4,62.7,29.41,South,180,8.9,11.2,94,0.01,,,0.03,WUHU216HW,2013-02-21 09:12:00,
2013-02-21 03:17:00,64.6,62.9,29.41,SSE,158,4.0,11.2,94,0.01,,,0.03,WUHU216HW,2013-02-21 09:17:00,
2013-02-21 03:30:00,64.6,62.9,29.40,SE,135,6.0,8.5,94,0.01,,,0.03,WUHU216HW,2013-02-21 09:30:00,
2013-02-21 03:35:00,64.8,63.1,29.40,South,180,7.4,9.2,94,0.01,,,0.03,WUHU216HW,2013-02-21 09:35:00,
2013-02-21 03:40:00,64.8,63.1,29.41,South,180,4.7,9.2,94,0.01,,,0.03,WUHU216HW,2013-02-21 09:40:00,
2013-02-21 03:45:00,64.8,63.1,29.41,South,180,5.1,9.6,94,0.00,,,0.03,WUHU216HW,2013-02-21 09:45:00,
2013-02-21 03:50:00,64.8,63.1,29.41,SW,225,4.7,9.6,94,0.00,,,0.03,WUHU216HW,2013-02-21 09:50:00,
2013-02-21 03:55:00,64.8,63.1,29.40,SSW,203,5.1,6.3,94,0.00,,,0.03,WUHU216HW,2013-02-21 09:55:00,
2013-02-21 04:00:00,64.8,63.1,29.40,SE,135,2.7,8.5,94,0.00,,,0.03,WUHU216HW,2013-02-21 10:00:00,
2013-02-21 04:05:00,65.0,63.2,29.40,SSE,158,4.7,8.5,94,0.00,,,0.03,WUHU216HW,2013-02-21 10:05:00,
2013-02-21 04:10:00,65.0,63.2,29.40,SSW,203,4.7,9.4,94,0.00,,,0.03,WUHU216HW,2013-02-21 10:10:00,
2013-02-21 04:15:00,65.0,63.2,29.40,SSE,158,9.2,9.4,94,0.00,,,0.03,WUHU216HW,2013-02-21 10:15:00,
2013-02-21 04:20:00,65.0,63.2,29.39,SSE,158,7.6,9.2,94,0.00,,,0.03,WUHU216HW,2013-02-21 10:20:00,
2013-02-21 04:25:00,65.2,63.4,29.39,SSE,158,9.2,9.2,94,0.00,,,0.03,WUHU216HW,2013-02-21 10:25:00,
2013-02-21 04:30:00,65.2,63.4,29.39,SSE,158,7.6,9.2,94,0.00,,,0.03,WUHU216HW,2013-02-21 10:30:00,
2013-02-21 04:35:00,65.2,63.1,29.38,SSE,158,9.8,9.8,93,0.00,,,0.03,WUHU216HW,2013-02-21 10:35:00,
2013-02-21 04:40:00,65.2,63.1,29.38,SSE,158,6.9,9.8,93,0.00,,,0.03,WUHU216HW,2013-02-21 10:40:00,
2013-02-21 04:47:00,65.3,63.3,29.39,SSE,158,9.2,9.2,93,0.00,,,0.03,WUHU216HW,2013-02-21 10:47:00,
2013-02-21 04:52:00,65.5,63.5,29.38,SSW,203,7.6,9.2,93,0.00,,,0.03,WUHU216HW,2013-02-21 10:52:00,
2013-02-21 04:57:00,65.7,63.6,29.38,South,180,6.0,12.3,93,0.00,,,0.03,WUHU216HW,2013-02-21 10:57:00,
2013-02-21 05:02:00,65.7,63.3,29.39,South,180,5.8,13.4,92,0.00,,,0.03,WUHU216HW,2013-02-21 11:02:00,
2013-02-21 05:07:00,65.7,63.3,29.39,SE,135,8.1,13.4,92,0.00,,,0.03,WUHU216HW,2013-02-21 11:07:00,
2013-02-21 05:12:00,65.9,63.5,29.39,SW,225,4.9,13.9,92,0.00,,,0.03,WUHU216HW,2013-02-21 11:12:00,
2013-02-21 05:17:00,65.9,63.5,29.39,South,180,12.1,13.9,92,0.00,,,0.03,WUHU216HW,2013-02-21 11:17:00,
2013-02-21 05:24:00,65.9,63.2,29.39,SSE,158,8.5,12.8,91,0.00,,,0.03,WUHU216HW,2013-02-21 11:24:00,
2013-02-21 05:29:00,65.9,63.2,29.40,SSE,158,10.5,10.5,91,0.00,,,0.03,WUHU216HW,2013-02-21 11:29:00,
2013-02-21 05:34:00,65.9,63.2,29.40,South,180,9.4,11.4,91,0.00,,,0.03,WUHU216HW,2013-02-21 11:34:00,
2013-02-21 05:39:00,65.9,63.5,29.41,NW,315,2.5,11.4,92,0.00,,,0.03,WUHU216HW,2013-02-21 11:39:00,
2013-02-21 05:44:00,65.9,63.5,29.42,SW,225,1.3,6.7,92,0.00,,,0.03,WUHU216HW,2013-02-21 11:44:00,
2013-02-21 05:49:00,65.9,63.5,29.43,WSW,248,2.5,6.3,92,0.00,,,0.03,WUHU216HW,2013-02-21 11:49:00,
2013-02-21 05:54:00,65.9,63.2,29.43,WSW,248,5.4,5.4,91,0.00,,,0.03,WUHU216HW,2013-02-21 11:54:00,
2013-02-21 05:59:00,65.9,63.5,29.43,SSW,203,1.8,6.5,92,0.00,,,0.03,WUHU216HW,2013-02-21 11:59:00,
2013-02-21 06:04:00,65.9,63.2,29.42,SSW,203,2.9,6.5,91,0.00,,,0.03,WUHU216HW,2013-02-21 12:04:00,
2013-02-21 06:09:00,65.9,63.2,29.42,SSE,158,3.4,5.6,91,0.00,,,0.03,WUHU216HW,2013-02-21 12:09:00,
2013-02-21 06:14:00,65.9,63.2,29.42,SE,135,2.5,5.6,91,0.00,,,0.03,WUHU216HW,2013-02-21 12:14:00,
2013-02-21 06:19:00,65.9,63.2,29.42,South,180,2.5,5.6,91,0.00,,,0.03,WUHU216HW,2013-02-21 12:19:00,
2013-02-21 06:24:00,65.9,63.2,29.42,SSW,203,1.1,6.5,91,0.00,,,0.03,WUHU216HW,2013-02-21 12:24:00,
2013-02-21 06:29:00,65.7,63.0,29.42,South,180,3.6,6.5,91,0.00,,,0.03,WUHU216HW,2013-02-21 12:29:00,
2013-02-21 06:34:00,65.7,62.7,29.42,SSE,158,0.7,4.0,90,0.00,,,0.03,WUHU216HW,2013-02-21 12:34:00,
2013-02-21 06:39:00,65.5,62.6,29.42,SSW,203,2.0,2.0,90,0.00,,,0.03,WUHU216HW,2013-02-21 12:39:00,
2013-02-21 06:44:00,65.3,62.4,29.42,WSW,248,2.5,4.0,90,0.00,,,0.03,WUHU216HW,2013-02-21 12:44:00,
2013-02-21 06:49:00,65.2,62.2,29.42,WSW,248,4.3,4.3,90,0.00,,,0.03,WUHU216HW,2013-02-21 12:49:00,
2013-02-21 06:54:00,65.2,62.2,29.43,West,270,3.1,4.9,90,0.00,,,0.03,WUHU216HW,2013-02-21 12:54:00,
2013-02-21 06:59:00,65.0,62.0,29.43,SSW,203,4.5,4.9,90,0.00,,,0.03,WUHU216HW,2013-02-21 12:59:00,
2013-02-21 07:04:00,64.8,61.9,29.43,SW,225,3.4,4.7,90,0.00,,,0.03,WUHU216HW,2013-02-21 13:04:00,
2013-02-21 07:09:00,64.8,62.2,29.44,SW,225,6.5,6.5,91,0.00,,,0.03,WUHU216HW,2013-02-21 13:09:00,
2013-02-21 07:14:00,65.0,62.4,29.45,WSW,248,4.3,6.5,91,0.00,,,0.03,WUHU216HW,2013-02-21 13:14:00,
2013-02-21 07:19:00,65.2,62.5,29.44,SW,225,2.7,4.9,91,0.00,,,0.03,WUHU216HW,2013-02-21 13:19:00,
2013-02-21 07:24:00,65.2,62.5,29.45,SW,225,3.4,6.9,91,0.00,,,0.03,WUHU216HW,2013-02-21 13:24:00,
2013-02-21 07:31:00,65.3,62.6,29.45,SW,225,4.0,6.9,91,0.00,,,0.03,WUHU216HW,2013-02-21 13:31:00,
2013-02-21 07:36:00,65.7,63.0,29.45,SW,225,1.3,5.1,91,0.00,,,0.03,WUHU216HW,2013-02-21 13:36:00,
2013-02-21 07:41:00,65.9,63.5,29.46,South,180,3.4,4.7,92,0.00,,,0.03,WUHU216HW,2013-02-21 13:41:00,
2013-02-21 07:46:00,66.1,63.4,29.47,WSW,248,2.9,4.7,91,0.00,,,0.03,WUHU216HW,2013-02-21 13:46:00,
2013-02-21 07:51:00,65.3,62.0,29.51,WNW,293,1.8,6.5,89,0.00,,,0.03,WUHU216HW,2013-02-21 13:51:00,
2013-02-21 07:56:00,63.0,58.1,29.52,NW,315,4.0,6.5,84,0.00,,,0.03,WUHU216HW,2013-02-21 13:56:00,
2013-02-21 08:01:00,61.0,55.9,29.53,West,270,4.7,7.2,83,0.00,,,0.03,WUHU216HW,2013-02-21 14:01:00,
2013-02-21 08:07:00,59.4,54.3,29.53,West,270,3.8,7.2,83,0.00,,,0.03,WUHU216HW,2013-02-21 14:07:00,
2013-02-21 08:12:00,58.7,53.6,29.53,WNW,293,5.4,6.9,83,0.00,,,0.03,WUHU216HW,2013-02-21 14:12:00,
2013-02-21 08:17:00,58.0,52.8,29.53,West,270,4.0,9.8,83,0.00,,,0.03,WUHU216HW,2013-02-21 14:17:00,
2013-02-21 08:22:00,58.5,53.4,29.54,NW,315,6.5,9.8,83,0.00,,,0.03,WUHU216HW,2013-02-21 14:22:00,
2013-02-21 08:28:00,61.0,55.5,29.54,WNW,293,2.0,6.5,82,0.00,,,0.03,WUHU216HW,2013-02-21 14:28:00,
2013-02-21 08:33:00,64.4,58.1,29.54,NNE,23,6.9,6.9,80,0.00,,,0.03,WUHU216HW,2013-02-21 14:33:00,
2013-02-21 08:41:00,67.1,56.3,29.55,WNW,293,5.4,8.5,68,0.00,,,0.03,WUHU216HW,2013-02-21 14:41:00,
2013-02-21 08:46:00,67.7,55.4,29.56,NW,315,4.0,8.5,65,0.00,,,0.03,WUHU216HW,2013-02-21 14:46:00,
2013-02-21 08:51:00,69.1,56.4,29.55,NNW,338,6.3,8.3,64,0.00,,,0.03,WUHU216HW,2013-02-21 14:51:00,
2013-02-21 08:56:00,70.2,55.3,29.55,WSW,248,10.1,10.1,59,0.00,,,0.03,WUHU216HW,2013-02-21 14:56:00,
2013-02-21 09:01:00,70.0,54.1,29.56,NW,315,2.2,10.1,57,0.00,,,0.03,WUHU216HW,2013-02-21 15:01:00,
2013-02-21 09:06:00,70.6,53.6,29.56,West,270,7.6,8.7,55,0.00,,,0.03,WUHU216HW,2013-02-21 15:06:00,
2013-02-21 09:11:00,71.3,52.8,29.56,West,270,4.7,8.7,52,0.00,,,0.03,WUHU216HW,2013-02-21 15:11:00,
2013-02-21 09:16:00,71.5,52.4,29.57,WNW,293,4.3,9.2,51,0.00,,,0.03,WUHU216HW,2013-02-21 15:16:00,
2013-02-21 09:21:00,72.2,51.9,29.57,West,270,9.2,9.2,49,0.00,,,0.03,WUHU216HW,2013-02-21 15:21:00,
2013-02-21 09:26:00,73.1,51.6,29.57,West,270,3.4,9.2,47,0.00,,,0.03,WUHU216HW,2013-02-21 15:26:00,
2013-02-21 09:31:00,73.8,51.0,29.57,West,270,6.0,6.9,45,0.00,,,0.03,WUHU216HW,2013-02-21 15:31:00,
2013-02-21 09:36:00,74.3,50.3,29.57,WNW,293,3.8,9.8,43,0.00,,,0.03,WUHU216HW,2013-02-21 15:36:00,
2013-02-21 09:41:00,74.0,46.7,29.57,North,0,7.6,9.8,38,0.00,,,0.03,WUHU216HW,2013-02-21 15:41:00,
2013-02-21 09:46:00,73.8,49.2,29.57,NNW,338,6.7,10.3,42,0.00,,,0.03,WUHU216HW,2013-02-21 15:46:00,
2013-02-21 09:51:00,74.9,49.0,29.58,WNW,293,3.4,10.5,40,0.00,,,0.03,WUHU216HW,2013-02-21 15:51:00,
2013-02-21 09:56:00,75.4,48.7,29.58,West,270,8.5,10.5,39,0.00,,,0.03,WUHU216HW,2013-02-21 15:56:00,
2013-02-21 10:01:00,75.4,48.0,29.58,NW,315,8.1,11.2,38,0.00,,,0.03,WUHU216HW,2013-02-21 16:01:00,
2013-02-21 10:06:00,76.3,46.5,29.58,West,270,9.2,15.2,35,0.00,,,0.03,WUHU216HW,2013-02-21 16:06:00,
2013-02-21 10:11:00,75.8,43.7,29.58,NW,315,8.5,15.2,32,0.00,,,0.03,WUHU216HW,2013-02-21 16:11:00,
2013-02-21 10:18:00,76.0,45.5,29.58,NW,315,6.9,11.2,34,0.00,,,0.03,WUHU216HW,2013-02-21 16:18:00,
2013-02-21 10:23:00,76.5,44.4,29.58,SSW,203,5.4,11.4,32,0.00,,,0.03,WUHU216HW,2013-02-21 16:23:00,
2013-02-21 10:28:00,75.6,42.8,29.58,WSW,248,3.4,11.4,31,0.00,,,0.03,WUHU216HW,2013-02-21 16:28:00,
2013-02-21 10:33:00,76.0,43.2,29.58,SW,225,7.2,11.2,31,0.00,,,0.03,WUHU216HW,2013-02-21 16:33:00,
2013-02-21 10:38:00,75.2,40.8,29.59,WNW,293,15.9,15.9,29,0.00,,,0.03,WUHU216HW,2013-02-21 16:38:00,
2013-02-21 10:43:00,76.0,43.2,29.59,West,270,5.6,15.9,31,0.00,,,0.03,WUHU216HW,2013-02-21 16:43:00,
2013-02-21 10:48:00,76.9,42.2,29.59,NW,315,4.0,9.6,29,0.00,,,0.03,WUHU216HW,2013-02-21 16:48:00,
2013-02-21 10:53:00,77.0,40.2,29.59,West,270,4.9,9.2,27,0.00,,,0.03,WUHU216HW,2013-02-21 16:53:00,
2013-02-21 10:58:00,77.4,43.7,29.59,NNW,338,5.6,11.2,30,0.00,,,0.03,WUHU216HW,2013-02-21 16:58:00,
2013-02-21 11:03:00,77.8,41.9,29.58,NNW,338,6.5,11.2,28,0.00,,,0.03,WUHU216HW,2013-02-21 17:03:00,
2013-02-21 11:08:00,79.0,42.9,29.59,NW,315,2.7,7.4,28,0.00,,,0.03,WUHU216HW,2013-02-21 17:08:00,
2013-02-21 11:15:00,79.6,41.3,29.59,West,270,6.3,10.5,26,0.00,,,0.03,WUHU216HW,2013-02-21 17:15:00,
2013-02-21 11:20:00,80.1,41.8,29.59,NW,315,6.9,10.5,26,0.00,,,0.03,WUHU216HW,2013-02-21 17:20:00,
2013-02-21 11:25:00,80.6,42.3,29.58,WSW,248,5.1,8.5,26,0.00,,,0.03,WUHU216HW,2013-02-21 17:25:00,
2013-02-21 11:30:00,81.4,40.8,29.58,WNW,293,3.6,9.8,24,0.00,,,0.03,WUHU216HW,2013-02-21 17:30:00,
2013-02-21 11:35:00,80.6,39.2,29.58,NW,315,8.7,15.4,23,0.00,,,0.03,WUHU216HW,2013-02-21 17:35:00,
2013-02-21 11:40:00,78.7,37.4,29.58,WSW,248,13.4,15.7,23,0.00,,,0.03,WUHU216HW,2013-02-21 17:40:00,
2013-02-21 11:45:00,77.4,38.4,29.58,NW,315,5.1,15.7,25,0.00,,,0.03,WUHU216HW,2013-02-21 17:45:00,
2013-02-21 11:50:00,80.3,39.9,29.57,WSW,248,7.6,12.1,24,0.00,,,0.03,WUHU216HW,2013-02-21 17:50:00,
2013-02-21 11:55:00,80.1,39.7,29.57,NW,315,8.5,10.5,24,0.00,,,0.03,WUHU216HW,2013-02-21 17:55:00,
2013-02-21 12:00:00,82.1,41.3,29.57,NNW,338,6.7,8.5,24,0.00,,,0.03,WUHU216HW,2013-02-21 18:00:00,
2013-02-21 12:05:00,81.9,39.1,29.57,WSW,248,3.8,7.6,22,0.00,,,0.03,WUHU216HW,2013-02-21 18:05:00,
2013-02-21 12:10:00,81.2,39.6,29.57,West,270,4.0,8.5,23,0.00,,,0.03,WUHU216HW,2013-02-21 18:10:00,
2013-02-21 12:15:00,82.1,39.2,29.57,WNW,293,9.6,9.6,22,0.00,,,0.03,WUHU216HW,2013-02-21 18:15:00,
2013-02-21 12:20:00,81.9,39.1,29.56,West,270,10.1,10.1,22,0.00,,,0.03,WUHU216HW,2013-02-21 18:20:00,
2013-02-21 12:25:00,81.0,38.3,29.56,NW,315,6.9,17.7,22,0.00,,,0.03,WUHU216HW,2013-02-21 18:25:00,
2013-02-21 12:30:00,81.4,38.7,29.57,NNW,338,4.7,17.7,22,0.00,,,0.03,WUHU216HW,2013-02-21 18:30:00,
2013-02-21 12:35:00,81.5,38.8,29.56,SW,225,2.0,11.9,22,0.00,,,0.03,WUHU216HW,2013-02-21 18:35:00,
2013-02-21 12:40:00,82.4,38.5,29.56,West,270,4.5,11.9,21,0.00,,,0.03,WUHU216HW,2013-02-21 18:40:00,
2013-02-21 12:45:00,82.3,38.3,29.56,WNW,293,3.8,7.6,21,0.00,,,0.03,WUHU216HW,2013-02-21 18:45:00,
2013-02-21 12:50:00,81.9,38.1,29.55,WSW,248,3.1,8.5,21,0.00,,,0.03,WUHU216HW,2013-02-21 18:50:00,
2013-02-21 12:55:00,82.8,38.8,29.55,West,270,6.0,8.5,21,0.00,,,0.03,WUHU216HW,2013-02-21 18:55:00,
2013-02-21 13:00:00,83.7,39.5,29.55,WSW,248,4.0,7.6,21,0.00,,,0.03,WUHU216HW,2013-02-21 19:00:00,
2013-02-21 13:05:00,83.2,34.7,29.55,West,270,11.4,13.4,18,0.00,,,0.03,WUHU216HW,2013-02-21 19:05:00,
2013-02-21 13:10:00,80.5,32.5,29.56,WNW,293,9.2,15.0,18,0.00,,,0.03,WUHU216HW,2013-02-21 19:10:00,
2013-02-21 13:15:00,79.9,36.4,29.55,West,270,5.1,15.0,21,0.00,,,0.03,WUHU216HW,2013-02-21 19:15:00,
2013-02-21 13:20:00,80.3,34.0,29.55,WSW,248,8.3,19.0,19,0.00,,,0.03,WUHU216HW,2013-02-21 19:20:00,
2013-02-21 13:25:00,80.3,36.7,29.55,West,270,12.3,19.0,21,0.00,,,0.03,WUHU216HW,2013-02-21 19:25:00,
2013-02-21 13:30:00,80.5,36.9,29.54,WNW,293,4.7,12.3,21,0.00,,,0.03,WUHU216HW,2013-02-21 19:30:00,
2013-02-21 13:35:00,81.0,33.0,29.54,SW,225,16.8,16.8,18,0.00,,,0.03,WUHU216HW,2013-02-21 19:35:00,
2013-02-21 13:40:00,79.6,31.7,29.53,WSW,248,8.5,16.8,18,0.00,,,0.03,WUHU216HW,2013-02-21 19:40:00,
2013-02-21 13:45:00,80.1,33.9,29.53,WSW,248,9.8,13.4,19,0.00,,,0.03,WUHU216HW,2013-02-21 19:45:00,
2013-02-21 13:50:00,80.1,32.1,29.53,WSW,248,7.6,10.5,18,0.00,,,0.03,WUHU216HW,2013-02-21 19:50:00,
2013-02-21 13:55:00,79.9,33.7,29.53,WSW,248,4.5,11.9,19,0.00,,,0.03,WUHU216HW,2013-02-21 19:55:00,
2013-02-21 14:00:00,80.3,34.0,29.52,WSW,248,7.6,11.9,19,0.00,,,0.03,WUHU216HW,2013-02-21 20:00:00,
2013-02-21 14:05:00,80.3,36.7,29.53,WNW,293,4.7,11.9,21,0.00,,,0.03,WUHU216HW,2013-02-21 20:05:00,
2013-02-21 14:10:00,81.0,33.0,29.53,WSW,248,3.4,11.9,18,0.00,,,0.03,WUHU216HW,2013-02-21 20:10:00,
2013-02-21 14:15:00,80.5,32.5,29.53,NNW,338,12.1,12.1,18,0.00,,,0.03,WUHU216HW,2013-02-21 20:15:00,
2013-02-21 14:20:00,80.3,34.0,29.53,West,270,9.6,12.1,19,0.00,,,0.03,WUHU216HW,2013-02-21 20:20:00,
2013-02-21 14:25:00,81.0,34.6,29.52,WSW,248,3.8,9.6,19,0.00,,,0.03,WUHU216HW,2013-02-21 20:25:00,
2013-02-21 14:33:00,82.1,35.5,29.52,WSW,248,8.9,8.9,19,0.00,,,0.03,WUHU216HW,2013-02-21 20:33:00,
2013-02-21 14:38:00,80.5,34.1,29.53,WSW,248,3.8,14.1,19,0.00,,,0.03,WUHU216HW,2013-02-21 20:38:00,
2013-02-21 14:43:00,81.0,34.6,29.53,NNW,338,6.9,14.1,19,0.00,,,0.03,WUHU216HW,2013-02-21 20:43:00,
2013-02-21 14:48:00,79.6,33.4,29.53,NW,315,4.5,12.5,19,0.00,,,0.03,WUHU216HW,2013-02-21 20:48:00,
2013-02-21 14:53:00,80.3,34.0,29.53,WNW,293,2.5,12.5,19,0.00,,,0.03,WUHU216HW,2013-02-21 20:53:00,
2013-02-21 15:03:00,79.2,31.3,29.52,North,0,16.8,16.8,18,0.00,,,0.03,WUHU216HW,2013-02-21 21:03:00,
2013-02-21 15:08:00,77.0,31.3,29.53,WSW,248,6.9,16.8,19,0.00,,,0.03,WUHU216HW,2013-02-21 21:08:00,
2013-02-21 15:13:00,76.3,33.4,29.53,West,270,4.7,13.6,21,0.00,,,0.03,WUHU216HW,2013-02-21 21:13:00,
2013-02-21 15:18:00,76.1,33.3,29.52,WNW,293,5.8,11.2,21,0.00,,,0.03,WUHU216HW,2013-02-21 21:18:00,
2013-02-21 15:23:00,76.0,33.1,29.52,NW,315,3.4,7.6,21,0.00,,,0.03,WUHU216HW,2013-02-21 21:23:00,
2013-02-21 15:28:00,76.0,33.1,29.52,WSW,248,8.3,11.0,21,0.00,,,0.03,WUHU216HW,2013-02-21 21:28:00,
2013-02-21 15:33:00,75.8,32.9,29.52,SW,225,6.3,11.0,21,0.00,,,0.03,WUHU216HW,2013-02-21 21:33:00,
2013-02-21 15:38:00,75.8,32.9,29.51,NNW,338,2.9,9.6,21,0.00,,,0.03,WUHU216HW,2013-02-21 21:38:00,
2013-02-21 15:43:00,75.6,32.9,29.52,WNW,293,1.3,6.3,21,0.00,,,0.03,WUHU216HW,2013-02-21 21:43:00,
2013-02-21 15:48:00,75.2,32.5,29.52,WSW,248,7.6,7.6,21,0.00,,,0.03,WUHU216HW,2013-02-21 21:48:00,
2013-02-21 15:53:00,74.9,32.2,29.53,West,270,4.7,7.6,21,0.00,,,0.03,WUHU216HW,2013-02-21 21:53:00,
2013-02-21 15:58:00,74.9,32.2,29.53,WNW,293,5.4,6.9,21,0.00,,,0.03,WUHU216HW,2013-02-21 21:58:00,
2013-02-21 16:03:00,74.5,29.3,29.53,SW,225,10.5,10.5,19,0.00,,,0.03,WUHU216HW,2013-02-21 22:03:00,
2013-02-21 16:08:00,74.5,29.3,29.53,WNW,293,6.5,10.5,19,0.00,,,0.03,WUHU216HW,2013-02-21 22:08:00,
2013-02-21 16:13:00,74.2,29.0,29.53,West,270,4.5,6.5,19,0.00,,,0.03,WUHU216HW,2013-02-21 22:13:00,
2013-02-21 16:18:00,73.8,28.7,29.53,WSW,248,3.6,4.9,19,0.00,,,0.03,WUHU216HW,2013-02-21 22:18:00,
2013-02-21 16:26:00,73.1,28.1,29.54,WSW,248,2.9,5.4,19,0.00,,,0.03,WUHU216HW,2013-02-21 22:26:00,
2013-02-21 16:31:00,72.9,29.6,29.54,WSW,248,4.5,5.4,20,0.00,,,0.03,WUHU216HW,2013-02-21 22:31:00,
2013-02-21 16:36:00,72.7,27.8,29.54,WNW,293,3.4,9.2,19,0.00,,,0.03,WUHU216HW,2013-02-21 22:36:00,
2013-02-21 16:41:00,72.7,27.8,29.54,North,0,1.1,9.2,19,0.00,,,0.03,WUHU216HW,2013-02-21 22:41:00,
2013-02-21 16:46:00,72.7,27.8,29.54,West,270,7.2,7.2,19,0.00,,,0.03,WUHU216HW,2013-02-21 22:46:00,
2013-02-21 16:51:00,72.7,27.8,29.54,West,270,3.8,7.2,19,0.00,,,0.03,WUHU216HW,2013-02-21 22:51:00,
2013-02-21 16:56:00,72.7,26.2,29.54,NNW,338,2.9,5.6,18,0.00,,,0.03,WUHU216HW,2013-02-21 22:56:00,
2013-02-21 17:01:00,72.5,26.0,29.54,West,270,9.2,9.2,18,0.00,,,0.03,WUHU216HW,2013-02-21 23:01:00,
2013-02-21 17:06:00,72.2,24.0,29.54,SW,225,4.0,11.6,17,0.00,,,0.03,WUHU216HW,2013-02-21 23:06:00,
2013-02-21 17:11:00,72.0,25.6,29.55,North,0,2.9,11.6,18,0.00,,,0.03,WUHU216HW,2013-02-21 23:11:00,
2013-02-21 17:16:00,71.8,25.4,29.55,West,270,3.4,4.3,18,0.00,,,0.03,WUHU216HW,2013-02-21 23:16:00,
2013-02-21 17:21:00,71.5,25.0,29.55,WSW,248,3.4,4.0,18,0.00,,,0.03,WUHU216HW,2013-02-21 23:21:00,
2013-02-21 17:26:00,71.1,24.8,29.55,West,270,4.9,5.4,18,0.00,,,0.03,WUHU216HW,2013-02-21 23:26:00,
2013-02-21 17:31:00,70.7,24.5,29.56,WNW,293,5.4,5.4,18,0.00,,,0.03,WUHU216HW,2013-02-21 23:31:00,
2013-02-21 17:36:00,70.4,25.8,29.56,WNW,293,0.9,5.4,19,0.00,,,0.03,WUHU216HW,2013-02-21 23:36:00,
2013-02-21 17:41:00,69.8,25.4,29.56,WNW,293,2.0,5.4,19,0.00,,,0.03,WUHU216HW,2013-02-21 23:41:00,
2013-02-21 17:46:00,69.1,27.5,29.56,West,270,1.1,2.9,21,0.00,,,0.03,WUHU216HW,2013-02-21 23:46:00,
2013-02-21 17:51:00,68.6,27.0,29.56,WSW,248,1.6,3.1,21,0.00,,,0.03,WUHU216HW,2013-02-21 23:51:00,
2013-02-21 17:56:00,67.9,26.4,29.57,WNW,293,0.4,3.1,21,0.00,,,0.03,WUHU216HW,2013-02-21 23:56:00,
2013-02-21 18:01:00,67.3,26.9,29.57,WNW,293,1.8,2.0,22,0.00,,,0.03,WUHU216HW,2013-02-22 00:01:00,
2013-02-21 18:06:00,66.6,27.3,29.57,WNW,293,1.6,1.8,23,0.00,,,0.03,WUHU216HW,2013-02-22 00:06:00,
2013-02-21 18:11:00,66.1,27.8,29.57,WNW,293,0.7,1.6,24,0.00,,,0.03,WUHU216HW,2013-02-22 00:11:00,
2013-02-21 18:16:00,65.3,28.3,29.58,West,270,0.0,1.1,25,0.00,,,0.03,WUHU216HW,2013-02-22 00:16:00,
2013-02-21 18:21:00,64.4,28.4,29.58,WNW,293,0.0,1.1,26,0.00,,,0.03,WUHU216HW,2013-02-22 00:21:00,
2013-02-21 18:26:00,63.4,26.6,29.58,WNW,293,0.0,0.4,25,0.00,,,0.03,WUHU216HW,2013-02-22 00:26:00,
2013-02-21 18:31:00,62.3,28.5,29.58,WNW,293,0.0,0.4,28,0.00,,,0.03,WUHU216HW,2013-02-22 00:31:00,
2013-02-21 18:36:00,61.4,27.7,29.59,WNW,293,0.0,1.3,28,0.00,,,0.03,WUHU216HW,2013-02-22 00:36:00,
2013-02-21 18:41:00,60.3,27.8,29.59,WNW,293,0.0,1.3,29,0.00,,,0.03,WUHU216HW,2013-02-22 00:41:00,
2013-02-21 18:46:00,59.4,28.0,29.59,WNW,293,0.0,0.0,30,0.00,,,0.03,WUHU216HW,2013-02-22 00:46:00,
2013-02-21 18:51:00,58.3,27.8,29.60,WNW,293,0.0,0.9,31,0.00,,,0.03,WUHU216HW,2013-02-22 00:51:00,
2013-02-21 18:56:00,57.2,27.6,29.60,West,270,0.0,1.6,32,0.00,,,0.03,WUHU216HW,2013-02-22 00:56:00,
2013-02-21 19:01:00,56.5,28.3,29.60,West,270,0.0,1.6,34,0.00,,,0.03,WUHU216HW,2013-02-22 01:01:00,
2013-02-21 19:06:00,55.6,28.9,29.61,WNW,293,0.9,0.9,36,0.00,,,0.03,WUHU216HW,2013-02-22 01:06:00,
2013-02-21 19:11:00,54.9,28.9,29.61,WNW,293,0.7,0.9,37,0.00,,,0.03,WUHU216HW,2013-02-22 01:11:00,
2013-02-21 19:16:00,54.2,29.0,29.61,WNW,293,0.7,0.7,38,0.00,,,0.03,WUHU216HW,2013-02-22 01:16:00,
2013-02-21 19:23:00,53.3,29.5,29.61,WSW,248,1.8,2.5,40,0.00,,,0.03,WUHU216HW,2013-02-22 01:23:00,
2013-02-21 19:28:00,52.6,29.4,29.61,West,270,2.5,2.5,41,0.00,,,0.03,WUHU216HW,2013-02-22 01:28:00,
2013-02-21 19:33:00,51.8,29.3,29.61,West,270,1.1,2.9,42,0.00,,,0.03,WUHU216HW,2013-02-22 01:33:00,
2013-02-21 19:38:00,51.1,29.9,29.62,WSW,248,2.7,2.9,44,0.00,,,0.03,WUHU216HW,2013-02-22 01:38:00,
2013-02-21 19:43:00,50.6,29.3,29.61,WSW,248,2.0,2.7,44,0.00,,,0.03,WUHU216HW,2013-02-22 01:43:00,
2013-02-21 20:00:00,49.3,29.4,29.62,West,270,1.8,2.9,46,0.00,,,0.03,WUHU216HW,2013-02-22 02:00:00,
2013-02-21 20:05:00,49.0,29.0,29.63,WSW,248,1.1,2.9,46,0.00,,,0.03,WUHU216HW,2013-02-22 02:05:00,
2013-02-21 20:10:00,48.6,28.6,29.63,West,270,0.0,1.8,46,0.00,,,0.03,WUHU216HW,2013-02-22 02:10:00,
2013-02-21 20:15:00,48.2,28.8,29.63,West,270,1.6,2.2,47,0.00,,,0.03,WUHU216HW,2013-02-22 02:15:00,
2013-02-21 20:20:00,47.9,29.0,29.63,WSW,248,1.1,3.1,48,0.00,,,0.03,WUHU216HW,2013-02-22 02:20:00,
2013-02-21 20:25:00,47.7,29.4,29.63,WSW,248,0.4,3.1,49,0.00,,,0.03,WUHU216HW,2013-02-22 02:25:00,
2013-02-21 20:40:00,46.6,29.0,29.64,West,270,0.0,0.9,50,0.00,,,0.03,WUHU216HW,2013-02-22 02:40:00,
2013-02-21 20:45:00,46.3,28.6,29.63,West,270,1.3,1.3,50,0.00,,,0.03,WUHU216HW,2013-02-22 02:45:00,
2013-02-21 20:53:00,45.5,29.3,29.64,West,270,2.5,3.4,53,0.00,,,0.03,WUHU216HW,2013-02-22 02:53:00,
2013-02-21 20:58:00,45.2,29.0,29.64,West,270,1.3,3.4,53,0.00,,,0.03,WUHU216HW,2013-02-22 02:58:00,
2013-02-21 21:03:00,45.0,29.4,29.64,West,270,0.9,2.9,54,0.00,,,0.03,WUHU216HW,2013-02-22 03:03:00,
2013-02-21 21:08:00,44.6,29.0,29.64,WSW,248,1.6,2.5,54,0.00,,,0.03,WUHU216HW,2013-02-22 03:08:00,
2013-02-21 21:13:00,44.5,28.8,29.64,WSW,248,1.6,1.8,54,0.00,,,0.03,WUHU216HW,2013-02-22 03:13:00,
2013-02-21 21:18:00,44.5,29.3,29.65,West,270,1.3,1.8,55,0.00,,,0.03,WUHU216HW,2013-02-22 03:18:00,
2013-02-21 21:23:00,44.3,28.6,29.65,WSW,248,0.7,1.8,54,0.00,,,0.03,WUHU216HW,2013-02-22 03:23:00,
2013-02-21 21:28:00,44.3,28.6,29.65,West,270,0.0,1.8,54,0.00,,,0.03,WUHU216HW,2013-02-22 03:28:00,
2013-02-21 21:37:00,44.5,28.8,29.66,WNW,293,1.3,1.8,54,0.00,,,0.03,WUHU216HW,2013-02-22 03:37:00,
2013-02-21 21:42:00,44.3,28.6,29.66,WNW,293,0.7,1.3,54,0.00,,,0.03,WUHU216HW,2013-02-22 03:42:00,
2013-02-21 21:47:00,44.3,28.6,29.66,WNW,293,0.7,1.1,54,0.00,,,0.03,WUHU216HW,2013-02-22 03:47:00,
2013-02-21 21:52:00,43.9,28.3,29.65,WNW,293,0.9,1.1,54,0.00,,,0.03,WUHU216HW,2013-02-22 03:52:00,
2013-02-21 21:57:00,44.1,28.4,29.65,West,270,1.3,1.3,54,0.00,,,0.03,WUHU216HW,2013-02-22 03:57:00,
2013-02-21 22:02:00,44.3,28.2,29.65,West,270,0.9,1.8,53,0.00,,,0.03,WUHU216HW,2013-02-22 04:02:00,
2013-02-21 22:10:00,45.0,29.4,29.66,West,270,0.7,1.6,54,0.00,,,0.03,WUHU216HW,2013-02-22 04:10:00,
2013-02-21 22:15:00,45.2,29.0,29.66,West,270,0.0,0.7,53,0.00,,,0.03,WUHU216HW,2013-02-22 04:15:00,
2013-02-21 22:23:00,45.5,29.8,29.67,SSE,158,0.7,1.1,54,0.00,,,0.03,WUHU216HW,2013-02-22 04:23:00,
2013-02-21 22:28:00,45.5,29.3,29.67,SSE,158,0.0,1.1,53,0.00,,,0.03,WUHU216HW,2013-02-22 04:28:00,
2013-02-21 22:33:00,45.4,29.2,29.67,SE,135,0.0,0.7,53,0.00,,,0.03,WUHU216HW,2013-02-22 04:33:00,
2013-02-21 22:38:00,45.0,28.9,29.67,SE,135,0.9,0.9,53,0.00,,,0.03,WUHU216HW,2013-02-22 04:38:00,
2013-02-21 22:43:00,44.6,28.5,29.67,SW,225,0.0,0.9,53,0.00,,,0.03,WUHU216HW,2013-02-22 04:43:00,
2013-02-21 22:48:00,44.1,28.4,29.67,SSW,203,0.0,1.1,54,0.00,,,0.03,WUHU216HW,2013-02-22 04:48:00,
2013-02-21 22:53:00,43.7,28.2,29.67,SSW,203,0.0,1.1,54,0.00,,,0.03,WUHU216HW,2013-02-22 04:53:00,
2013-02-21 22:58:00,43.6,28.5,29.67,SSW,203,0.0,0.7,55,0.00,,,0.03,WUHU216HW,2013-02-22 04:58:00,
2013-02-21 23:00:00,43.4,27.8,29.67,SSW,203,1.3,1.3,54,0.00,,,0.03,WUHU216HW,2013-02-22 05:00:00,
2013-02-21 23:05:00,43.0,28.4,29.67,WSW,248,2.5,2.5,56,0.00,,,0.03,WUHU216HW,2013-02-22 05:05:00,
2013-02-21 23:10:00,42.5,28.7,29.66,WSW,248,1.8,2.9,58,0.00,,,0.03,WUHU216HW,2013-02-22 05:10:00,
2013-02-21 23:15:00,42.1,28.8,29.66,WNW,293,0.9,2.9,59,0.00,,,0.03,WUHU216HW,2013-02-22 05:15:00,
2013-02-21 23:20:00,41.8,28.4,29.65,West,270,0.4,2.5,59,0.00,,,0.03,WUHU216HW,2013-02-22 05:20:00,
2013-02-21 23:25:00,41.6,28.3,29.65,WSW,248,2.2,2.2,59,0.00,,,0.03,WUHU216HW,2013-02-22 05:25:00,
2013-02-21 23:30:00,41.4,29.0,29.65,West,270,1.8,2.9,61,0.00,,,0.03,WUHU216HW,2013-02-22 05:30:00,
2013-02-21 23:35:00,41.4,29.0,29.64,WNW,293,0.0,2.9,61,0.00,,,0.03,WUHU216HW,2013-02-22 05:35:00,
2013-02-21 23:40:00,41.2,28.8,29.63,NW,315,0.7,1.6,61,0.00,,,0.03,WUHU216HW,2013-02-22 05:40:00,
2013-02-21 23:45:00,41.0,28.6,29.64,West,270,0.0,0.7,61,0.00,,,0.03,WUHU216HW,2013-02-22 05:45:00,
2013-02-21 23:50:00,40.7,28.6,29.64,West,270,0.0,0.7,62,0.00,,,0.03,WUHU216HW,2013-02-22 05:50:00,
2013-02-21 23:55:00,40.5,28.1,29.64,West,270,0.2,0.7,61,0.00,,,0.03,WUHU216HW,2013-02-22 05:55:00,